Weather History for Scottsdale, AZ

Change the Weather History Date:

Tuesday, January 15, 2013

  Actual Average Record
Temperature  
Mean Temperature 37 °F -  
Max Temperature 48 °F 64 °F 80 °F (2000)
Min Temperature 26 °F 43 °F 26 °F (2007)
Degree Days  
Heating Degree Days 28    
Moisture  
Dew Point 0 °F    
Average Humidity 22    
Maximum Humidity 39    
Minimum Humidity 12    
Precipitation  
Precipitation 0.00 in - - ()
Sea Level Pressure  
Sea Level Pressure 30.35 in    
Wind  
Wind Speed 4 mph (WNW)    
Max Wind Speed 7 mph    
Max Gust Speed -    
Visibility 10 miles    
Events      
Averages and records for this station are not official NWS values.
T = Trace of Precipitation, MM = Missing Value Source: NWS Daily Summary

Daily Weather History Graph

Daily Weather History Graph

Search for Another Location

Airport:

Trip Planner

Search our weather history database for the weather conditions in past years. The results will help you decide how hot, cold, wet, or windy it might be!

Date:

Astronomy

Jan. 15, 2013 Rise Set
Actual Time 7:31 AM MST 5:42 PM MST
Civil Twilight 7:04 AM MST 6:09 PM MST
Nautical Twilight 6:34 AM MST 6:40 PM MST
Astronomical Twilight 6:04 AM MST 7:10 PM MST
Moon 9:54 AM MST (1/15) 10:19 PM MST (1/15)
Length of Visible Light 11h 04m
Length of Day
10h 10m
Waxing Crescent, 20% of the Moon is Illuminated
Jan 15
Waxing Crescent
Jan 18
First Quarter
Jan 26
Full
Feb 3
Last Quarter
Feb 10
New

Hourly Weather History & Observations

Time (MST) Temp. Windchill Dew Point Humidity Pressure Visibility Wind Dir Wind Speed Gust Speed Precip Events Conditions
12:53 AM 34.0 °F 28.8 °F 1.0 °F 25% 30.27 in 10.0 mi NNE 5.8 mph - N/A   Clear
1:53 AM 34.0 °F 28.0 °F -0.9 °F 23% 30.28 in 10.0 mi NNE 6.9 mph - N/A   Clear
2:53 AM 30.9 °F 26.2 °F -0.0 °F 27% 30.31 in 10.0 mi WNW 4.6 mph - N/A   Clear
3:53 AM 30.0 °F 25.2 °F -2.0 °F 25% 30.31 in 10.0 mi NW 4.6 mph - N/A   Clear
4:53 AM 30.0 °F 24.1 °F -2.0 °F 25% 30.32 in 10.0 mi NW 5.8 mph - N/A   Clear
5:53 AM 30.9 °F - -2.0 °F 24% 30.33 in 10.0 mi Calm Calm - N/A   Clear
6:53 AM 26.1 °F - 3.9 °F 39% 30.35 in 10.0 mi Calm Calm - N/A   Clear
7:53 AM 27.0 °F - 5.0 °F 39% 30.39 in 10.0 mi Calm Calm - N/A   Clear
8:53 AM 30.9 °F - 5.0 °F 33% 30.41 in 9.0 mi Calm Calm - N/A   Clear
9:53 AM 39.0 °F - -4.0 °F 16% 30.42 in 10.0 mi Calm Calm - N/A   Clear
10:53 AM 41.0 °F - -5.1 °F 14% 30.42 in 10.0 mi Calm Calm - N/A   Clear
11:53 AM 43.0 °F 39.5 °F -5.1 °F 13% 30.39 in 10.0 mi SSW 5.8 mph - N/A   Clear
12:53 PM 44.1 °F 42.5 °F -4.0 °F 13% 30.36 in 10.0 mi Variable 3.5 mph - N/A   Clear
1:53 PM 46.0 °F - -2.9 °F 13% 30.34 in 10.0 mi Calm Calm - N/A   Clear
2:53 PM 48.0 °F - -2.9 °F 12% 30.32 in 10.0 mi South 4.6 mph - N/A   Clear
3:53 PM 48.0 °F - -2.9 °F 12% 30.32 in 10.0 mi SW 4.6 mph - N/A   Clear
4:53 PM 48.9 °F - -2.9 °F 12% 30.33 in 10.0 mi West 4.6 mph - N/A   Clear
5:53 PM 48.0 °F - -0.9 °F 13% 30.34 in 10.0 mi West 3.5 mph - N/A   Clear
6:53 PM 45.0 °F 42.6 °F -0.0 °F 15% 30.37 in 10.0 mi NW 4.6 mph - N/A   Clear
7:53 PM 43.0 °F 39.5 °F 3.9 °F 20% 30.37 in 10.0 mi NNE 5.8 mph - N/A   Clear
8:53 PM 41.0 °F - 3.0 °F 21% 30.37 in 10.0 mi Calm Calm - N/A   Clear
9:53 PM 37.0 °F - 8.1 °F 30% 30.37 in 10.0 mi Calm Calm - N/A   Clear
11:53 PM 36.0 °F - 8.1 °F 31% 30.38 in 10.0 mi Calm Calm - N/A   Clear